TimeEDT,TemperatureF,Dew PointF,Humidity,Sea Level PressureIn,VisibilityMPH,Wind Direction,Wind SpeedMPH,Gust SpeedMPH,PrecipitationIn,Events,Conditions,WindDirDegrees,DateUTC
12:45 AM,19.4,6.8,58,30.15,10.0,NW,17.3,-,N/A,,Clear,310,2014-03-24 04:45:00
1:45 AM,19.4,6.8,58,30.17,10.0,WNW,17.3,-,N/A,,Clear,300,2014-03-24 05:45:00
2:45 AM,17.6,5.0,58,30.17,10.0,WNW,17.3,-,N/A,,Clear,300,2014-03-24 06:45:00
4:45 AM,17.6,5.0,58,30.18,10.0,WNW,17.3,-,N/A,,Clear,300,2014-03-24 08:45:00
5:45 AM,15.8,3.2,58,30.18,10.0,WNW,4.6,-,N/A,,Clear,300,2014-03-24 09:45:00
6:45 AM,15.8,6.8,68,30.19,20.0,West,5.8,-,N/A,,Scattered Clouds,280,2014-03-24 10:45:00
7:45 AM,17.6,10.4,73,30.21,20.0,West,5.8,-,N/A,,Scattered Clouds,260,2014-03-24 11:45:00
8:45 AM,21.2,8.6,58,30.21,20.0,WNW,9.2,-,N/A,,Partly Cloudy,300,2014-03-24 12:45:00
10:45 AM,24.8,6.8,46,30.21,20.0,NNW,5.8,-,N/A,,Scattered Clouds,340,2014-03-24 14:45:00
11:45 AM,24.8,6.8,46,30.20,20.0,West,6.9,-,N/A,,Mostly Cloudy,280,2014-03-24 15:45:00
12:45 PM,26.6,6.8,43,30.17,20.0,NW,6.9,-,N/A,,Scattered Clouds,304,2014-03-24 16:45:00
1:45 PM,30.2,8.6,40,30.15,20.0,WNW,17.3,28.8,N/A,,Scattered Clouds,300,2014-03-24 17:45:00
2:45 PM,30.2,6.8,37,30.12,20.0,NNW,11.5,29.9,N/A,,Scattered Clouds,330,2014-03-24 18:45:00
3:45 PM,30.2,6.8,37,30.10,20.0,NNW,9.2,16.1,N/A,,Scattered Clouds,340,2014-03-24 19:45:00
4:45 PM,30.2,6.8,37,30.09,20.0,WNW,13.8,23.0,N/A,,Scattered Clouds,290,2014-03-24 20:45:00
5:45 PM,30.2,8.6,40,30.10,20.0,WNW,13.8,23.0,N/A,,Scattered Clouds,290,2014-03-24 21:45:00
6:45 PM,28.4,8.6,43,30.10,20.0,WNW,13.8,23.0,N/A,,Mostly Cloudy,290,2014-03-24 22:45:00
7:45 PM,26.6,8.6,47,30.12,10.0,WNW,13.8,23.0,N/A,,Scattered Clouds,300,2014-03-24 23:45:00
8:45 PM,24.8,8.6,50,30.15,10.0,WNW,11.5,-,N/A,,Clear,300,2014-03-25 00:45:00
9:45 PM,23.0,8.6,54,30.16,10.0,WNW,9.2,-,N/A,,Clear,300,2014-03-25 01:45:00
10:45 PM,23.0,8.6,54,30.16,10.0,WNW,6.9,-,N/A,,Clear,300,2014-03-25 02:45:00
11:45 PM,23.0,6.8,50,30.16,10.0,WNW,3.5,-,N/A,,Clear,300,2014-03-25 03:45:00